SIA8412 ZGGG-WSSS

Flight info

Callsign SIA8412
Flight time N/A
Altitude 37100
Route VIBOS9 VIBOS R473 SIERA/N0490F371 DCT EPDOS L642 EPKAL/K0907F371 L642 ESPOB/N0491F371 Q801 ESBUM Q802 ELALO ELALO1A
Aircraft B77W/H-SDE1E2E3FGHIJ2J3J4J5M1RWXY/LB1D1

Departure

Time N/A
Airport Guangzhou Baiyun International Airport (ZGGG)

Arrival

Time 2026-05-05 15:04
Airport Singapore Changi Airport (WSSS)
Time Latitude Longitude Altitude Speed Heading
2026-05-05 13:07 13.83385 109.91402 36983 ft 479 kts 214°
2026-05-05 13:08 13.77640 109.87730 36984 ft 480 kts 214°
2026-05-05 13:08 13.71891 109.84047 36987 ft 480 kts 214°
2026-05-05 13:09 13.66130 109.80352 36987 ft 480 kts 214°
2026-05-05 13:09 13.60413 109.76685 36988 ft 480 kts 214°
2026-05-05 13:10 13.54659 109.72995 36986 ft 480 kts 214°
2026-05-05 13:10 13.48973 109.69350 36989 ft 480 kts 214°
2026-05-05 13:11 13.43243 109.65678 36991 ft 481 kts 214°
2026-05-05 13:11 13.37503 109.62002 36988 ft 479 kts 214°
2026-05-05 13:12 13.31732 109.58307 36997 ft 481 kts 214°
2026-05-05 13:12 13.25953 109.54610 37003 ft 481 kts 214°
2026-05-05 13:13 13.20173 109.50913 37001 ft 481 kts 214°
2026-05-05 13:13 13.14382 109.47213 37003 ft 482 kts 213°
2026-05-05 13:14 13.08605 109.43523 37002 ft 481 kts 213°
2026-05-05 13:14 13.02780 109.39804 37002 ft 482 kts 213°
2026-05-05 13:15 12.96978 109.36102 37002 ft 483 kts 214°
2026-05-05 13:15 12.91206 109.32422 37001 ft 482 kts 213°
2026-05-05 13:16 12.85415 109.28732 37014 ft 483 kts 213°
2026-05-05 13:16 12.79595 109.25025 37020 ft 482 kts 213°
2026-05-05 13:17 12.73784 109.21325 37035 ft 482 kts 213°
2026-05-05 13:17 12.67967 109.17625 37039 ft 482 kts 213°
2026-05-05 13:18 12.62162 109.13934 37038 ft 483 kts 213°
2026-05-05 13:18 12.56345 109.10240 37040 ft 483 kts 213°
2026-05-05 13:19 12.50561 109.06570 37026 ft 483 kts 213°
2026-05-05 13:19 12.44790 109.02910 37028 ft 484 kts 213°
2026-05-05 13:20 12.38992 108.99235 37027 ft 482 kts 213°
2026-05-05 13:20 12.33165 108.95542 37047 ft 482 kts 213°
2026-05-05 13:21 12.27339 108.91853 37069 ft 483 kts 213°
2026-05-05 13:21 12.21563 108.88197 37088 ft 484 kts 212°
2026-05-05 13:22 12.15723 108.84503 37106 ft 484 kts 212°
2026-05-05 13:22 12.09908 108.80827 37117 ft 484 kts 212°
2026-05-05 13:23 12.04101 108.77157 37122 ft 482 kts 213°
2026-05-05 13:23 11.98317 108.73503 37115 ft 483 kts 212°
2026-05-05 13:24 11.92519 108.69843 37111 ft 483 kts 212°
2026-05-05 13:24 11.86740 108.66197 37108 ft 484 kts 212°
2026-05-05 13:25 11.80886 108.62505 37104 ft 484 kts 212°
2026-05-05 13:25 11.75082 108.58848 37099 ft 485 kts 213°
2026-05-05 13:26 11.69274 108.55190 37108 ft 484 kts 213°
2026-05-05 13:26 11.63408 108.51498 37108 ft 485 kts 213°
2026-05-05 13:27 11.57585 108.47833 37098 ft 484 kts 212°
2026-05-05 13:27 11.51749 108.44164 37078 ft 484 kts 212°
2026-05-05 13:28 11.45946 108.40516 37064 ft 484 kts 213°
2026-05-05 13:28 11.40110 108.36849 37044 ft 485 kts 212°
2026-05-05 13:29 11.34263 108.33178 37030 ft 485 kts 212°
2026-05-05 13:29 11.28468 108.29540 37014 ft 485 kts 212°
2026-05-05 13:30 11.22622 108.25873 37003 ft 485 kts 212°
2026-05-05 13:30 11.16758 108.22196 36997 ft 484 kts 212°
2026-05-05 13:31 11.10910 108.18531 36989 ft 484 kts 212°
2026-05-05 13:31 11.05053 108.14861 36986 ft 484 kts 212°
2026-05-05 13:32 10.99227 108.11214 36977 ft 484 kts 212°
2026-05-05 13:32 10.93366 108.07546 36972 ft 485 kts 212°
2026-05-05 13:33 10.87600 108.03775 36970 ft 486 kts 214°
2026-05-05 13:33 10.81871 107.99950 36968 ft 485 kts 214°
2026-05-05 13:34 10.76153 107.96143 36970 ft 484 kts 214°
2026-05-05 13:34 10.70384 107.92308 36967 ft 485 kts 214°
2026-05-05 13:35 10.64671 107.88515 36967 ft 485 kts 214°
2026-05-05 13:35 10.58941 107.84714 36968 ft 487 kts 214°
2026-05-05 13:36 10.53161 107.80881 36972 ft 489 kts 213°
2026-05-05 13:36 10.47295 107.76994 36970 ft 489 kts 213°
2026-05-05 13:37 10.41374 107.73081 36970 ft 488 kts 213°
2026-05-05 13:37 10.35458 107.69183 36969 ft 490 kts 213°
2026-05-05 13:38 10.29547 107.65288 36968 ft 490 kts 213°
2026-05-05 13:38 10.23662 107.61412 36962 ft 490 kts 213°
2026-05-05 13:39 10.17742 107.57516 36957 ft 491 kts 213°
2026-05-05 13:39 10.11785 107.53593 36951 ft 491 kts 213°
2026-05-05 13:40 10.05849 107.49676 36949 ft 491 kts 213°
2026-05-05 13:40 9.99954 107.45788 36951 ft 490 kts 213°
2026-05-05 13:41 9.94032 107.41885 36952 ft 490 kts 213°
2026-05-05 13:41 9.88143 107.38004 36958 ft 491 kts 212°
2026-05-05 13:42 9.82176 107.34074 36960 ft 490 kts 212°
2026-05-05 13:42 9.76253 107.30174 36960 ft 491 kts 212°
2026-05-05 13:43 9.70306 107.26261 36961 ft 492 kts 212°
2026-05-05 13:43 9.64382 107.22364 36961 ft 490 kts 212°
2026-05-05 13:44 9.58443 107.18459 36960 ft 490 kts 212°
2026-05-05 13:44 9.52519 107.14566 36963 ft 491 kts 212°
2026-05-05 13:45 9.46637 107.10702 36960 ft 491 kts 212°
2026-05-05 13:45 9.40678 107.06789 36961 ft 492 kts 212°
2026-05-05 13:46 9.34806 107.02935 36960 ft 492 kts 212°
2026-05-05 13:46 9.28952 106.99094 36961 ft 491 kts 212°
2026-05-05 13:47 9.23108 106.95261 36962 ft 493 kts 212°
2026-05-05 13:47 9.17288 106.91446 36962 ft 492 kts 212°
2026-05-05 13:48 9.11440 106.87614 36965 ft 493 kts 212°
2026-05-05 13:48 9.05612 106.83796 36961 ft 495 kts 212°
2026-05-05 13:49 8.99749 106.79957 36961 ft 495 kts 212°
2026-05-05 13:49 8.93840 106.76089 36949 ft 494 kts 212°
2026-05-05 13:50 8.87989 106.72261 36950 ft 494 kts 212°
2026-05-05 13:50 8.82160 106.68449 36960 ft 494 kts 212°
2026-05-05 13:51 8.76289 106.64610 36959 ft 495 kts 212°
2026-05-05 13:51 8.70399 106.60814 36963 ft 494 kts 211°
2026-05-05 13:52 8.64377 106.57088 36964 ft 495 kts 211°
2026-05-05 13:52 8.58438 106.53410 36966 ft 494 kts 211°
2026-05-05 13:53 8.52473 106.49713 36967 ft 495 kts 211°
2026-05-05 13:53 8.46528 106.46027 36965 ft 495 kts 211°
2026-05-05 13:54 8.40548 106.42319 36965 ft 495 kts 211°
2026-05-05 13:54 8.34592 106.38626 36966 ft 495 kts 211°
2026-05-05 13:55 8.28661 106.34950 36965 ft 495 kts 211°
2026-05-05 13:55 8.22699 106.31255 36962 ft 494 kts 211°
2026-05-05 13:56 8.16737 106.27563 36964 ft 495 kts 211°
2026-05-05 13:56 8.10795 106.23884 36964 ft 495 kts 211°
2026-05-05 13:57 8.04845 106.20200 36963 ft 493 kts 211°
2026-05-05 13:57 7.98893 106.16517 36965 ft 493 kts 211°
2026-05-05 13:58 7.92991 106.12866 36956 ft 495 kts 211°
2026-05-05 13:58 7.86976 106.09147 36943 ft 495 kts 211°
2026-05-05 13:59 7.78004 106.03601 36942 ft 495 kts 211°
2026-05-05 14:00 7.69997 105.98654 36943 ft 495 kts 211°
2026-05-05 14:00 7.63027 105.94349 36941 ft 494 kts 211°
2026-05-05 14:01 7.57079 105.90677 36942 ft 496 kts 211°
2026-05-05 14:01 7.51070 105.86969 36944 ft 496 kts 211°
2026-05-05 14:02 7.45045 105.83252 36952 ft 497 kts 211°
2026-05-05 14:02 7.38972 105.79507 36961 ft 497 kts 211°
2026-05-05 14:03 7.32946 105.75791 36961 ft 497 kts 211°
2026-05-05 14:03 7.26873 105.72048 36964 ft 497 kts 211°
2026-05-05 14:04 7.20864 105.68346 36964 ft 497 kts 211°
2026-05-05 14:04 7.14854 105.64644 36965 ft 499 kts 211°
2026-05-05 14:05 7.08812 105.60924 36966 ft 498 kts 211°
2026-05-05 14:05 7.02765 105.57202 36966 ft 499 kts 211°
2026-05-05 14:06 6.96622 105.53616 36970 ft 498 kts 205°
2026-05-05 14:06 6.90251 105.50440 36966 ft 499 kts 205°
2026-05-05 14:07 6.83910 105.47257 36964 ft 498 kts 205°
2026-05-05 14:07 6.77581 105.44061 36965 ft 499 kts 206°
2026-05-05 14:08 6.71252 105.40855 36959 ft 499 kts 205°
2026-05-05 14:08 6.64852 105.37608 36958 ft 499 kts 205°
2026-05-05 14:09 6.58477 105.34371 36952 ft 499 kts 205°
2026-05-05 14:09 6.52125 105.31145 36946 ft 499 kts 205°
2026-05-05 14:10 6.45754 105.27909 36945 ft 499 kts 205°
2026-05-05 14:10 6.39403 105.24684 36944 ft 499 kts 205°
2026-05-05 14:11 6.33019 105.21442 36942 ft 499 kts 205°
2026-05-05 14:11 6.26667 105.18218 36943 ft 499 kts 205°
2026-05-05 14:12 6.20345 105.15010 36943 ft 498 kts 205°
2026-05-05 14:12 6.14002 105.11792 36942 ft 498 kts 205°
2026-05-05 14:13 6.07648 105.08569 36943 ft 500 kts 205°
2026-05-05 14:13 6.01289 105.05345 36949 ft 499 kts 205°
2026-05-05 14:14 5.94970 105.02142 36959 ft 499 kts 205°
2026-05-05 14:14 5.88598 104.98912 36960 ft 498 kts 205°
2026-05-05 14:15 5.82244 104.95692 36963 ft 497 kts 205°
2026-05-05 14:15 5.75890 104.92474 36963 ft 498 kts 205°
2026-05-05 14:16 5.69547 104.89262 36964 ft 498 kts 205°
2026-05-05 14:16 5.63190 104.86043 36963 ft 498 kts 205°
2026-05-05 14:17 5.56844 104.82832 36964 ft 498 kts 205°
2026-05-05 14:17 5.50455 104.79598 36964 ft 498 kts 205°
2026-05-05 14:18 5.44117 104.76392 36964 ft 498 kts 205°
2026-05-05 14:18 5.37810 104.73201 36963 ft 496 kts 205°
2026-05-05 14:19 5.31480 104.70001 36963 ft 497 kts 205°
2026-05-05 14:19 5.25183 104.66817 36963 ft 496 kts 205°
2026-05-05 14:20 5.18852 104.63617 36963 ft 496 kts 205°
2026-05-05 14:20 5.12543 104.60429 36963 ft 496 kts 205°
2026-05-05 14:21 5.06217 104.57233 36963 ft 495 kts 205°
2026-05-05 14:21 4.99912 104.54048 36956 ft 495 kts 205°
2026-05-05 14:22 4.93647 104.50884 36949 ft 495 kts 205°
2026-05-05 14:22 4.87002 104.48595 36934 ft 489 kts 187°
2026-05-05 14:23 4.80096 104.48452 36946 ft 484 kts 172°
2026-05-05 14:23 4.73193 104.49272 36945 ft 485 kts 171°
2026-05-05 14:24 4.66341 104.50120 36942 ft 484 kts 171°
2026-05-05 14:24 4.59454 104.50980 36949 ft 485 kts 171°
2026-05-05 14:25 4.52609 104.51839 36955 ft 485 kts 171°
2026-05-05 14:25 4.45733 104.52704 36960 ft 485 kts 171°
2026-05-05 14:26 4.38817 104.53575 36965 ft 486 kts 171°
2026-05-05 14:26 4.31939 104.54441 36966 ft 485 kts 171°
2026-05-05 14:27 4.25055 104.55309 36965 ft 485 kts 171°
2026-05-05 14:27 4.18157 104.56135 36967 ft 486 kts 172°
2026-05-05 14:28 4.11236 104.56797 36966 ft 486 kts 173°
2026-05-05 14:28 4.04343 104.57461 36962 ft 486 kts 173°
2026-05-05 14:29 3.97462 104.58128 36965 ft 487 kts 173°
2026-05-05 14:29 3.90546 104.58801 36964 ft 486 kts 173°
2026-05-05 14:30 3.83682 104.59471 36965 ft 485 kts 173°
2026-05-05 14:30 3.76889 104.60135 36967 ft 485 kts 173°
2026-05-05 14:31 3.70035 104.60807 36965 ft 485 kts 173°
2026-05-05 14:31 3.63160 104.61482 36963 ft 485 kts 173°
2026-05-05 14:32 3.56270 104.62158 36965 ft 485 kts 173°
2026-05-05 14:32 3.49374 104.62835 36964 ft 485 kts 173°
2026-05-05 14:33 3.42479 104.63512 36965 ft 484 kts 173°
2026-05-05 14:33 3.35571 104.64190 36965 ft 484 kts 173°
2026-05-05 14:34 3.31001 104.64638 36949 ft 481 kts 173°
2026-05-05 14:34 3.27646 104.64967 36758 ft 480 kts 173°
2026-05-05 14:34 3.24262 104.65299 36406 ft 482 kts 173°
2026-05-05 14:35 3.20890 104.65630 36075 ft 484 kts 173°
2026-05-05 14:35 3.17482 104.65964 35834 ft 485 kts 173°
2026-05-05 14:35 3.14081 104.66290 35645 ft 484 kts 175°
2026-05-05 14:35 3.10699 104.66297 35098 ft 481 kts 183°
2026-05-05 14:36 3.07300 104.65804 34022 ft 488 kts 192°
2026-05-05 14:36 3.04004 104.64774 33079 ft 490 kts 201°
2026-05-05 14:36 3.00912 104.63247 32147 ft 493 kts 210°
2026-05-05 14:36 2.98091 104.61254 31245 ft 496 kts 219°
2026-05-05 14:37 2.95587 104.58835 30414 ft 497 kts 226°
2026-05-05 14:37 2.93252 104.56277 29928 ft 490 kts 227°
2026-05-05 14:37 2.90955 104.53754 29410 ft 484 kts 226°
2026-05-05 14:37 2.88638 104.51228 28832 ft 479 kts 226°
2026-05-05 14:38 2.86396 104.48795 28268 ft 475 kts 226°
2026-05-05 14:38 2.84132 104.46347 27697 ft 472 kts 226°
2026-05-05 14:38 2.81903 104.43946 27117 ft 469 kts 226°
2026-05-05 14:38 2.79660 104.41534 26531 ft 466 kts 226°
2026-05-05 14:39 2.77465 104.39178 25946 ft 463 kts 225°
2026-05-05 14:39 2.75240 104.36794 25350 ft 461 kts 226°
2026-05-05 14:39 2.73037 104.34434 24758 ft 458 kts 225°
2026-05-05 14:39 2.70856 104.32101 24154 ft 456 kts 225°
2026-05-05 14:40 2.66562 104.27510 22579 ft 459 kts 225°
2026-05-05 14:40 2.62843 104.23614 20979 ft 462 kts 223°
2026-05-05 14:40 2.60596 104.21369 20809 ft 447 kts 224°
2026-05-05 14:40 2.58423 104.19192 20802 ft 429 kts 224°
2026-05-05 14:41 2.56319 104.17114 20790 ft 411 kts 221°
2026-05-05 14:41 2.54127 104.15346 20777 ft 392 kts 213°
2026-05-05 14:41 2.51795 104.13950 20772 ft 374 kts 205°
2026-05-05 14:41 2.49462 104.12877 20758 ft 358 kts 200°
2026-05-05 14:42 2.47109 104.12035 20591 ft 356 kts 193°
2026-05-05 14:42 2.44646 104.11455 20230 ft 359 kts 189°
2026-05-05 14:42 2.42196 104.11046 19851 ft 355 kts 185°
2026-05-05 14:42 2.39688 104.10802 19480 ft 352 kts 181°
2026-05-05 14:43 2.35514 104.10612 18748 ft 350 kts 178°
2026-05-05 14:43 2.30584 104.10585 17693 ft 352 kts 178°
2026-05-05 14:43 2.25701 104.10568 17032 ft 348 kts 178°
2026-05-05 14:43 2.21208 104.10555 16445 ft 344 kts 178°
2026-05-05 14:44 2.18832 104.10538 16329 ft 333 kts 178°
2026-05-05 14:44 2.16483 104.10517 16129 ft 332 kts 178°
2026-05-05 14:44 2.14144 104.10506 15830 ft 331 kts 178°
2026-05-05 14:44 2.11813 104.10501 15506 ft 328 kts 178°
2026-05-05 14:45 2.09507 104.10500 15171 ft 325 kts 178°
2026-05-05 14:45 2.07229 104.10500 14845 ft 322 kts 178°
2026-05-05 14:45 2.04960 104.10500 14527 ft 319 kts 178°
2026-05-05 14:45 2.02736 104.10500 14206 ft 317 kts 178°
2026-05-05 14:46 2.00482 104.10500 13884 ft 316 kts 178°
2026-05-05 14:46 1.98223 104.10500 13556 ft 314 kts 178°
2026-05-05 14:46 1.95998 104.10509 13231 ft 312 kts 177°
2026-05-05 14:46 1.93778 104.10521 12923 ft 310 kts 177°
2026-05-05 14:47 1.91552 104.10532 12609 ft 309 kts 178°
2026-05-05 14:47 1.89388 104.10541 12294 ft 308 kts 178°
2026-05-05 14:47 1.87199 104.10551 11980 ft 306 kts 178°
2026-05-05 14:47 1.85040 104.10561 11671 ft 305 kts 178°
2026-05-05 14:48 1.82900 104.10571 11367 ft 303 kts 178°
2026-05-05 14:48 1.80775 104.10580 11065 ft 300 kts 178°
2026-05-05 14:48 1.78591 104.10590 10752 ft 296 kts 178°
2026-05-05 14:48 1.76466 104.10599 10459 ft 293 kts 178°
2026-05-05 14:49 1.74369 104.10609 10169 ft 290 kts 178°
2026-05-05 14:49 1.72281 104.10619 9873 ft 287 kts 178°
2026-05-05 14:49 1.70238 104.10628 9561 ft 285 kts 178°
2026-05-05 14:49 1.68214 104.10637 9301 ft 281 kts 179°
2026-05-05 14:50 1.66205 104.10646 9020 ft 281 kts 178°
2026-05-05 14:50 1.64217 104.10655 8725 ft 281 kts 179°
2026-05-05 14:50 1.62213 104.10666 8414 ft 280 kts 177°
2026-05-05 14:50 1.60234 104.10852 8114 ft 277 kts 171°
2026-05-05 14:51 1.58293 104.11139 7836 ft 275 kts 170°
2026-05-05 14:51 1.56397 104.11424 7562 ft 272 kts 170°
2026-05-05 14:51 1.54485 104.11708 7280 ft 270 kts 170°
2026-05-05 14:51 1.52585 104.11988 6999 ft 268 kts 171°
2026-05-05 14:52 1.50691 104.12266 6723 ft 266 kts 171°
2026-05-05 14:52 1.48820 104.12541 6450 ft 264 kts 171°
2026-05-05 14:52 1.46950 104.12812 6172 ft 262 kts 173°
2026-05-05 14:52 1.45103 104.12650 5897 ft 259 kts 197°
2026-05-05 14:53 1.43407 104.12032 5795 ft 251 kts 202°
2026-05-05 14:53 1.41741 104.11330 5721 ft 247 kts 202°
2026-05-05 14:53 1.40092 104.10628 5627 ft 246 kts 202°
2026-05-05 14:53 1.38461 104.09937 5521 ft 246 kts 202°
2026-05-05 14:54 1.36808 104.09237 5410 ft 247 kts 202°
2026-05-05 14:54 1.35138 104.08529 5297 ft 246 kts 202°
2026-05-05 14:54 1.33508 104.07839 5188 ft 245 kts 202°
2026-05-05 14:54 1.31897 104.07156 5079 ft 245 kts 202°
2026-05-05 14:55 1.30282 104.06473 4970 ft 246 kts 202°
2026-05-05 14:55 1.28677 104.05793 4862 ft 245 kts 202°
2026-05-05 14:55 1.27083 104.05119 4756 ft 244 kts 202°
2026-05-05 14:55 1.25498 104.04447 4650 ft 243 kts 202°
2026-05-05 14:56 1.23940 104.03787 4551 ft 243 kts 202°
2026-05-05 14:56 1.22375 104.03125 4452 ft 242 kts 202°
2026-05-05 14:56 1.20817 104.02456 4350 ft 243 kts 204°
2026-05-05 14:56 1.19285 104.01736 4242 ft 237 kts 205°
2026-05-05 14:57 1.17808 104.01030 4140 ft 229 kts 205°
2026-05-05 14:57 1.16377 104.00345 4052 ft 224 kts 205°
2026-05-05 14:57 1.14996 103.99681 3983 ft 215 kts 205°
2026-05-05 14:57 1.13722 103.98932 3966 ft 210 kts 225°
2026-05-05 14:58 1.13023 103.97694 3797 ft 205 kts 261°
2026-05-05 14:58 1.13162 103.96313 3658 ft 193 kts 289°
2026-05-05 14:58 1.13570 103.95064 3582 ft 187 kts 290°
2026-05-05 14:58 1.14183 103.93950 3491 ft 181 kts 322°
2026-05-05 14:59 1.15309 103.93433 3440 ft 178 kts 348°
2026-05-05 14:59 1.16534 103.93173 3341 ft 180 kts 350°
2026-05-05 14:59 1.17764 103.92928 3184 ft 179 kts 350°
2026-05-05 14:59 1.18992 103.92689 3011 ft 178 kts 350°
2026-05-05 15:00 1.20229 103.92449 2834 ft 179 kts 350°
2026-05-05 15:00 1.21053 103.92306 2712 ft 178 kts 354°
2026-05-05 15:00 1.22643 103.92585 2509 ft 174 kts 24°
2026-05-05 15:00 1.23766 103.93085 2290 ft 178 kts 25°
2026-05-05 15:01 1.24891 103.93562 2071 ft 171 kts 24°
2026-05-05 15:01 1.26023 103.94034 1859 ft 172 kts 24°
2026-05-05 15:01 1.27114 103.94492 1640 ft 168 kts 24°
2026-05-05 15:01 1.28158 103.94929 1439 ft 153 kts 24°
2026-05-05 15:02 1.29126 103.95335 1249 ft 146 kts 24°
2026-05-05 15:02 1.30055 103.95726 1050 ft 144 kts 24°
2026-05-05 15:02 1.30983 103.96105 831 ft 143 kts 23°
2026-05-05 15:02 1.31897 103.96493 617 ft 142 kts 25°
2026-05-05 15:03 1.32810 103.96885 508 ft 142 kts 21°
2026-05-05 15:03 1.33754 103.97247 360 ft 144 kts 22°
2026-05-05 15:03 1.34664 103.97636 135 ft 142 kts 23°
2026-05-05 15:03 1.35566 103.98023 48 ft 130 kts 22°
2026-05-05 15:04 1.36274 103.98321 47 ft 87 kts 22°
2026-05-05 15:04 1.36696 103.98501 47 ft 43 kts 23°
2026-05-05 15:04 1.36898 103.98585 47 ft 28 kts 22°
2026-05-05 15:04 1.37057 103.98688 47 ft 26 kts 43°
2026-05-05 15:05 1.37146 103.98819 47 ft 7 kts 81°
2026-05-05 15:05 1.37120 103.98855 47 ft 7 kts 165°
2026-05-05 15:05 1.37071 103.98850 47 ft 7 kts 195°
2026-05-05 15:06 1.37024 103.98847 47 ft 6 kts 148°
2026-05-05 15:06 1.37006 103.98885 47 ft 6 kts 101°
2026-05-05 15:06 1.36997 103.98930 47 ft 6 kts 104°
2026-05-05 15:06 1.36986 103.98963 47 ft 0 kts 112°
2026-05-05 15:08 1.36984 103.98966 47 ft 2 kts 113°
2026-05-05 15:09 1.36969 103.99002 47 ft 6 kts 114°
2026-05-05 15:09 1.36951 103.99044 47 ft 6 kts 113°
2026-05-05 15:09 1.36930 103.99092 47 ft 8 kts 112°
2026-05-05 15:09 1.36904 103.99155 47 ft 13 kts 112°
2026-05-05 15:10 1.36853 103.99270 47 ft 18 kts 113°
2026-05-05 15:10 1.36801 103.99388 47 ft 17 kts 113°
2026-05-05 15:10 1.36753 103.99499 47 ft 15 kts 112°
2026-05-05 15:10 1.36710 103.99601 47 ft 15 kts 112°
2026-05-05 15:11 1.36654 103.99681 47 ft 12 kts 168°
2026-05-05 15:11 1.36565 103.99655 47 ft 13 kts 202°
2026-05-05 15:11 1.36482 103.99620 47 ft 12 kts 204°
2026-05-05 15:11 1.36403 103.99580 47 ft 12 kts 221°
2026-05-05 15:12 1.36350 103.99515 47 ft 11 kts 232°
2026-05-05 15:12 1.36298 103.99449 47 ft 11 kts 224°
2026-05-05 15:12 1.36229 103.99409 47 ft 11 kts 206°
2026-05-05 15:12 1.36153 103.99376 47 ft 11 kts 202°
2026-05-05 15:13 1.36075 103.99344 47 ft 11 kts 202°
2026-05-05 15:13 1.36023 103.99319 47 ft 7 kts 199°
2026-05-05 15:13 1.35988 103.99300 47 ft 3 kts 230°
2026-05-05 15:13 1.35983 103.99289 47 ft 1 kts 257°
2026-05-05 15:14 1.35982 103.99284 47 ft 0 kts 269°
2026-05-05 15:14 1.35982 103.99282 47 ft 0 kts 272°